STARLINK-34207, 64333

Orbit data source: Space-Track

STARLINK-34207, 64333 is a payload satellite owned by SpaceX/Seattle (US) in LEO that was launched on Tue, 10 Jun 2025 UTC via an FALCON 9 launch vehicle from the Air Force Eastern Test Range (AFETR). Payload-class satellites include a variety of spacecraft equipped with specific instruments for various scientific and technological missions. These include communications satellites like Starlink; space stations such as the ISS; scientific satellites like the Hubble; Earth observation satellites from companies like Planet Labs, Umbra, and HawkEye 360; GPS; miniature CubeSats for education and research; and military/defense satellites.

Loading next visibility...
Identifier
64333, 2025-124S
Orbit
LEO
Last TLE update
11 hours ago
Origin
Manufacturer
SpaceX/Seattle
Mission
Operational spacecraft
Bus & Motor
STARLINK V2MO, Unknown motor
Mass
575 kg wet, ~530 kg dry
Launch date (UTC)
2025-06-10 (1 month ago)
Launch vehicle
FALCON 9
Launch site
Air Force Eastern Test Range (AFETR)
Object type
Payload
Rocket body
Debris
Shape & HBR
Unknown
Radar Cross Section
Large (>1 m²)

Expand to show TLE details & history

TLE from 11 hours ago
0 STARLINK-34207
1 64333U 25124S   25199.89046908  .00038827  00000-0  93205-3 0  9993
2 64333  43.0022   4.7029 0001532 265.3822  94.6859 15.40698872  5997
Epoch: 2025-07-18T21:22Z
TLE epoch observation values (Epoch: 2025-07-18T21:22:16.528Z)
Latitude
-0.00006°
Longitude
107.19854°
Altitude
443.905 km
Speed
7.648 km/s
True Right ascension
00h 18m 48s
True Declination
0° 00' 00"
Sunlit
Object was in full shadow at epoch
Visualization orbit readout
Latitude
39.07202°
Longitude
-135.49937°
Altitude
447.15 km
Speed
7.649 km/s
Apparent Right ascension
08h 49m 20s
Apparent Declination
1° 11' 50"
Sunlit
Object is in daylight
Visualization observer readout
Local Sidereal Time
21:34:08
Azimuth
16.746° NNE
Elevation
-47.63°
Doppler factor
1
Orbital elements
Apogee altitude
447.047 km
Perigee altitude
444.956 km
Semi-major axis
6,824.138 km
Eccentricity
0.00015
Inclination
43.0022°
RAAN
4.7029°
Arg. of periapsis
265.3822°
True anomaly
94.7034°
Mean anomaly
94.6859°
Eccentric anomaly
94.69465°
Mean motion
3.85009 °/min
Orbital period
93.5 mins
BSTAR
0.00093205
Loading maneuver chart data...
Loading SW <> Apogee altitude chart data...
Loading historical data...
Loading historical data...
Loading historical data...
Loading historical data...
Loading historical data...
Loading historical data...
Loading historical data...
|